Time,TemperatureF,DewpointF,PressureIn,WindDirection,WindDirectionDegrees,WindSpeedMPH,WindSpeedGustMPH,Humidity,HourlyPrecipIn,Conditions,Clouds,dailyrainin,SolarRadiationWatts/m^2,SoftwareType,DateUTC
2013-10-11 00:00:00,47.0,43.0,-100.00,WNW,292,1.0,-999.0,86,-99.99,,,-99.99,0.000000,,2013-10-11 04:00:00,
2013-10-11 00:44:00,47.0,43.0,-100.00,WNW,292,1.0,-999.0,86,-99.99,,,-99.99,0.000000,,2013-10-11 04:44:00,
2013-10-11 00:53:00,47.0,43.0,-100.00,WNW,292,1.0,-999.0,86,-99.99,,,-99.99,0.000000,,2013-10-11 04:53:00,
2013-10-11 01:00:00,44.0,42.0,-100.00,WNW,292,0.0,-999.0,91,-99.99,,,-99.99,0.000000,,2013-10-11 05:00:00,
2013-10-11 01:43:00,44.0,42.0,-100.00,WNW,292,0.0,-999.0,91,-99.99,,,-99.99,0.000000,,2013-10-11 05:43:00,
2013-10-11 01:52:00,44.0,42.0,-100.00,WNW,292,0.0,-999.0,91,-99.99,,,-99.99,0.000000,,2013-10-11 05:52:00,
2013-10-11 02:00:00,44.0,42.0,-100.00,West,270,0.0,-999.0,93,-99.99,,,-99.99,0.000000,,2013-10-11 06:00:00,
2013-10-11 02:43:00,44.0,42.0,-100.00,West,270,0.0,-999.0,93,-99.99,,,-99.99,0.000000,,2013-10-11 06:43:00,
2013-10-11 02:52:00,44.0,42.0,-100.00,West,270,0.0,-999.0,93,-99.99,,,-99.99,0.000000,,2013-10-11 06:52:00,
2013-10-11 03:00:00,44.0,42.0,-100.00,West,270,0.0,-999.0,94,-99.99,,,-99.99,0.000000,,2013-10-11 07:00:00,
2013-10-11 03:42:00,44.0,42.0,-100.00,West,270,0.0,-999.0,94,-99.99,,,-99.99,0.000000,,2013-10-11 07:42:00,
2013-10-11 03:52:00,44.0,42.0,-100.00,West,270,0.0,-999.0,94,-99.99,,,-99.99,0.000000,,2013-10-11 07:52:00,
2013-10-11 04:00:00,47.0,45.0,-100.00,NNW,337,1.0,-999.0,94,-99.99,,,-99.99,0.000000,,2013-10-11 08:00:00,
2013-10-11 04:42:00,47.0,45.0,-100.00,NNW,337,1.0,-999.0,94,-99.99,,,-99.99,0.000000,,2013-10-11 08:42:00,
2013-10-11 04:52:00,47.0,45.0,-100.00,NNW,337,1.0,-999.0,94,-99.99,,,-99.99,0.000000,,2013-10-11 08:52:00,
2013-10-11 05:00:00,46.0,45.0,-100.00,NW,315,1.0,-999.0,94,-99.99,,,-99.99,0.000000,,2013-10-11 09:00:00,
2013-10-11 05:43:00,46.0,45.0,-100.00,NW,315,1.0,-999.0,94,-99.99,,,-99.99,0.000000,,2013-10-11 09:43:00,
2013-10-11 05:54:00,46.0,45.0,-100.00,NW,315,1.0,-999.0,94,-99.99,,,-99.99,0.000000,,2013-10-11 09:54:00,
2013-10-11 06:00:00,46.0,44.0,-100.00,NNW,337,1.0,-999.0,94,-99.99,,,-99.99,0.000000,,2013-10-11 10:00:00,
2013-10-11 06:43:00,46.0,44.0,-100.00,NNW,337,1.0,-999.0,94,-99.99,,,-99.99,0.000000,,2013-10-11 10:43:00,
2013-10-11 06:53:00,46.0,44.0,-100.00,NNW,337,1.0,-999.0,94,-99.99,,,-99.99,0.000000,,2013-10-11 10:53:00,
2013-10-11 07:00:00,44.0,43.0,-100.00,WNW,292,0.0,-999.0,94,-99.99,,,-99.99,1.160000,,2013-10-11 11:00:00,
2013-10-11 07:42:00,44.0,43.0,-100.00,WNW,292,0.0,-999.0,94,-99.99,,,-99.99,1.160000,,2013-10-11 11:42:00,
2013-10-11 07:52:00,44.0,43.0,-100.00,WNW,292,0.0,-999.0,94,-99.99,,,-99.99,1.160000,,2013-10-11 11:52:00,
2013-10-11 08:00:00,42.0,41.0,-100.00,West,270,0.0,-999.0,94,-99.99,,,-99.99,4.640000,,2013-10-11 12:00:00,
2013-10-11 08:42:00,42.0,41.0,-100.00,West,270,0.0,-999.0,94,-99.99,,,-99.99,4.640000,,2013-10-11 12:42:00,
2013-10-11 08:52:00,42.0,41.0,-100.00,West,270,0.0,-999.0,94,-99.99,,,-99.99,4.640000,,2013-10-11 12:52:00,
2013-10-11 09:00:00,47.0,45.0,-100.00,WNW,292,1.0,-999.0,93,-99.99,,,-99.99,117.160004,,2013-10-11 13:00:00,
2013-10-11 09:43:00,47.0,45.0,-100.00,WNW,292,1.0,-999.0,93,-99.99,,,-99.99,117.160004,,2013-10-11 13:43:00,
2013-10-11 09:53:00,47.0,45.0,-100.00,WNW,292,1.0,-999.0,93,-99.99,,,-99.99,117.160004,,2013-10-11 13:53:00,
2013-10-11 10:00:00,55.0,47.0,-100.00,NNE,22,2.0,-999.0,76,-99.99,,,-99.99,293.480011,,2013-10-11 14:00:00,
2013-10-11 10:42:00,55.0,47.0,-100.00,NNE,22,2.0,-999.0,76,-99.99,,,-99.99,293.480011,,2013-10-11 14:42:00,
2013-10-11 10:52:00,55.0,47.0,-100.00,NNE,22,2.0,-999.0,76,-99.99,,,-99.99,293.480011,,2013-10-11 14:52:00,
2013-10-11 11:00:00,58.0,47.0,-100.00,ENE,67,2.0,-999.0,67,-99.99,,,-99.99,460.519989,,2013-10-11 15:00:00,
2013-10-11 11:44:00,58.0,47.0,-100.00,ENE,67,2.0,-999.0,67,-99.99,,,-99.99,460.519989,,2013-10-11 15:44:00,
2013-10-11 11:54:00,58.0,47.0,-100.00,ENE,67,2.0,-999.0,67,-99.99,,,-99.99,460.519989,,2013-10-11 15:54:00,
2013-10-11 12:00:00,62.0,45.0,-100.00,ESE,112,2.0,-999.0,54,-99.99,,,-99.99,586.960022,,2013-10-11 16:00:00,
2013-10-11 12:43:00,62.0,45.0,-100.00,ESE,112,2.0,-999.0,54,-99.99,,,-99.99,586.960022,,2013-10-11 16:43:00,
2013-10-11 12:53:00,62.0,45.0,-100.00,ESE,112,2.0,-999.0,54,-99.99,,,-99.99,586.960022,,2013-10-11 16:53:00,
2013-10-11 13:00:00,65.0,43.0,-100.00,ESE,112,2.0,-999.0,44,-99.99,,,-99.99,664.679993,,2013-10-11 17:00:00,
2013-10-11 13:43:00,65.0,43.0,-100.00,ESE,112,2.0,-999.0,44,-99.99,,,-99.99,664.679993,,2013-10-11 17:43:00,
2013-10-11 13:53:00,65.0,43.0,-100.00,ESE,112,2.0,-999.0,44,-99.99,,,-99.99,664.679993,,2013-10-11 17:53:00,
2013-10-11 14:00:00,68.0,40.0,-100.00,SE,135,2.0,-999.0,36,-99.99,,,-99.99,685.559998,,2013-10-11 18:00:00,
2013-10-11 14:43:00,68.0,40.0,-100.00,SE,135,2.0,-999.0,36,-99.99,,,-99.99,685.559998,,2013-10-11 18:43:00,
2013-10-11 14:53:00,68.0,40.0,-100.00,SE,135,2.0,-999.0,36,-99.99,,,-99.99,685.559998,,2013-10-11 18:53:00,
2013-10-11 15:00:00,70.0,36.0,-100.00,SSE,157,3.0,-999.0,29,-99.99,,,-99.99,650.760010,,2013-10-11 19:00:00,
2013-10-11 15:43:00,70.0,36.0,-100.00,SSE,157,3.0,-999.0,29,-99.99,,,-99.99,650.760010,,2013-10-11 19:43:00,
2013-10-11 15:52:00,70.0,36.0,-100.00,SSE,157,3.0,-999.0,29,-99.99,,,-99.99,650.760010,,2013-10-11 19:52:00,
2013-10-11 16:00:00,71.0,34.0,-100.00,SSE,157,3.0,-999.0,25,-99.99,,,-99.99,557.960022,,2013-10-11 20:00:00,
2013-10-11 16:43:00,71.0,34.0,-100.00,SSE,157,3.0,-999.0,25,-99.99,,,-99.99,557.960022,,2013-10-11 20:43:00,
2013-10-11 16:53:00,71.0,34.0,-100.00,SSE,157,3.0,-999.0,25,-99.99,,,-99.99,557.960022,,2013-10-11 20:53:00,
2013-10-11 17:00:00,71.0,39.0,-100.00,SE,135,3.0,-999.0,31,-99.99,,,-99.99,414.119995,,2013-10-11 21:00:00,
2013-10-11 17:43:00,71.0,39.0,-100.00,SE,135,3.0,-999.0,31,-99.99,,,-99.99,414.119995,,2013-10-11 21:43:00,
2013-10-11 17:55:00,71.0,39.0,-100.00,SE,135,3.0,-999.0,31,-99.99,,,-99.99,414.119995,,2013-10-11 21:55:00,
2013-10-11 18:00:00,70.0,38.0,-100.00,SE,135,1.0,-999.0,31,-99.99,,,-99.99,215.759995,,2013-10-11 22:00:00,
2013-10-11 18:43:00,70.0,38.0,-100.00,SE,135,1.0,-999.0,31,-99.99,,,-99.99,215.759995,,2013-10-11 22:43:00,
2013-10-11 18:54:00,70.0,38.0,-100.00,SE,135,1.0,-999.0,31,-99.99,,,-99.99,215.759995,,2013-10-11 22:54:00,
2013-10-11 19:00:00,66.0,46.0,-100.00,ESE,112,0.0,-999.0,48,-99.99,,,-99.99,56.840000,,2013-10-11 23:00:00,
2013-10-11 19:42:00,66.0,46.0,-100.00,ESE,112,0.0,-999.0,48,-99.99,,,-99.99,56.840000,,2013-10-11 23:42:00,
2013-10-11 19:53:00,66.0,46.0,-100.00,ESE,112,0.0,-999.0,48,-99.99,,,-99.99,56.840000,,2013-10-11 23:53:00,
2013-10-11 20:00:00,56.0,48.0,-100.00,West,270,0.0,-999.0,76,-99.99,,,-99.99,1.160000,,2013-10-12 00:00:00,
2013-10-11 20:42:00,56.0,48.0,-100.00,West,270,0.0,-999.0,76,-99.99,,,-99.99,1.160000,,2013-10-12 00:42:00,
2013-10-11 20:53:00,56.0,48.0,-100.00,West,270,0.0,-999.0,76,-99.99,,,-99.99,1.160000,,2013-10-12 00:53:00,
2013-10-11 21:00:00,52.0,48.0,-100.00,WNW,292,0.0,-999.0,85,-99.99,,,-99.99,0.000000,,2013-10-12 01:00:00,
2013-10-11 21:42:00,52.0,48.0,-100.00,WNW,292,0.0,-999.0,85,-99.99,,,-99.99,0.000000,,2013-10-12 01:42:00,
2013-10-11 21:52:00,52.0,48.0,-100.00,WNW,292,0.0,-999.0,85,-99.99,,,-99.99,0.000000,,2013-10-12 01:52:00,
2013-10-11 22:00:00,52.0,47.0,-100.00,NW,315,0.0,-999.0,81,-99.99,,,-99.99,0.000000,,2013-10-12 02:00:00,
2013-10-11 22:42:00,52.0,47.0,-100.00,NW,315,0.0,-999.0,81,-99.99,,,-99.99,0.000000,,2013-10-12 02:42:00,
2013-10-11 22:52:00,52.0,47.0,-100.00,NW,315,0.0,-999.0,81,-99.99,,,-99.99,0.000000,,2013-10-12 02:52:00,
2013-10-11 23:00:00,50.0,47.0,-100.00,NW,315,0.0,-999.0,89,-99.99,,,-99.99,0.000000,,2013-10-12 03:00:00,
2013-10-11 23:44:00,50.0,47.0,-100.00,NW,315,0.0,-999.0,89,-99.99,,,-99.99,0.000000,,2013-10-12 03:44:00,
2013-10-11 23:54:00,50.0,47.0,-100.00,NW,315,0.0,-999.0,89,-99.99,,,-99.99,0.000000,,2013-10-12 03:54:00,